Regional Weather Roundup
Issued by NWS

Home | Current Version | Previous Version | Text Only | Print | Product List | Glossary On
Versions: 1 2 3 4 5 6 7 8 9 10 11 12 13 14 15 16 17 18 19 20 21 22 23 24 25 26 27 28 29 30 31 32 33 34 35 36 37 38 39 40 41 42 43 44 45 46 47 48 49 50
000
ASUS43 KLMK 230510
RWRKY
KENTUCKY REGIONAL WEATHER ROUNDUP
NATIONAL WEATHER SERVICE LOUISVILLE KY
100 AM EDT THU MAR 23 2017

NOTE "FAIR" INDICATES FEW OR NO CLOUDS BELOW 12,000 FEET
WITH NO SIGNIFICANT WEATHER AND/OR OBSTRUCTIONS TO VISIBILITY.

KYZ001>023-026-027-061>063-070>075-230600-
WESTERN AND SOUTH CENTRAL KENTUCKY

CITY           SKY/WX    TMP DP  RH WIND       PRES   REMARKS
PADUCAH        CLEAR     43  23  45 E5        30.35S
HENDERSON      CLEAR     37  19  48 E9        30.39S WCI  31
OWENSBORO      PTCLDY    41  19  41 E10       30.40S
HOPKINSVILLE   CLEAR     43  22  43 E7        30.35S
BOWLING GREEN  PTCLDY    37  22  54 NE6       30.39F WCI  32
GLASGOW        CLEAR     37  22  56 NE9       30.38F WCI  30
$$

KYZ024-025-028>034-038-045-046-053-230600-
NORTH CENTRAL KENTUCKY

CITY           SKY/WX    TMP DP  RH WIND       PRES   REMARKS
LOUISVILLE/SDF PTCLDY    38  18  44 E9        30.43F WCI  31
LOUISVILLE/LOU CLEAR     37  20  50 NE7       30.44F WCI  32
FORT KNOX      PTCLDY    36  19  50 NE9       30.39F WCI  29
$$

KYZ035>037-039>044-047>052-055>060-089>105-230600-
NORTHEAST KENTUCKY

CITY           SKY/WX    TMP DP  RH WIND       PRES   REMARKS
LEXINGTON      CLEAR     31  19  61 NE9       30.42F WCI  23
COVINGTON      PTCLDY    32  19  58 E10       30.46S WCI  24
FRANKFORT      CLEAR     34  17  50 NE8       30.43F WCI  27
$$

KYZ054-064>069-076>088-106>120-230600-
SOUTHEAST KENTUCKY

CITY           SKY/WX    TMP DP  RH WIND       PRES   REMARKS
JACKSON        CLEAR     35  14  42 VRB6      30.40F WCI  30
LONDON         PTCLDY    38  14  37 NE5       30.38F WCI  34
SOMERSET       CLEAR     36  19  51 N5        30.40F WCI  32
MIDDLESBORO    PTCLDY    37  28  70 CALM      30.39S
MONTICELLO     PTCLDY    37  23  56 W7        30.40F WCI  32
$$




USA.gov is the U.S. government's official web portal to all federal, state and local government web resources and services.